RH
86 87 86 88 88 76 62 62 52 44 42 43 44 46 48 49 48 50 58 91 89 80 75 69 68 72 72 66 67 69 73 75 76 78 81 84 85 84 82 82 81 78 77
80 84 77 70 62 57 55 52 50 50 48 48 47 48 47 49 49 51 50 62 83 85 82 77 76 73 74 77 77 70 71 74 75 77 78 79 84 86 83 85 84 84 82
64 77 84 83 77 64 52 48 47 48 48 42 43 45 48 44 50 50 57 57 62 83 80 76 76 76 76 75 73 69 66 67 73 75 75 76 83 85 83 84 86 86 84
48 49 53 59 59 57 56 55 51 50 48 46 46 44 44 45 42 41 45 45 55 54 77 74 73 71 71 70 69 67 65 63 69 72 75 79 81 83 82 82 85 86 84
43 44 48 53 53 54 56 56 58 58 52 50 46 42 46 46 44 42 46 52 52 60 58 76 73 73 72 72 69 66 65 63 65 66 69 76 78 80 80 80 82 82 84
46 46 48 49 46 50 50 53 55 60 60 56 44 40 50 51 53 56 55 55 57 57 60 61 66 69 75 74 75 72 68 65 67 66 66 68 74 76 76 76 77 80 82
51 48 48 49 48 47 47 45 51 54 58 59 64 57 55 50 52 54 53 55 62 60 60 60 62 64 71 74 76 77 76 71 68 67 68 68 67 67 69 71 73 74 76
53 50 52 53 52 50 49 49 52 51 53 56 59 63 65 61 54 52 54 53 57 62 61 57 56 54 60 64 76 72 73 74 72 66 66 65 65 65 64 63 65 68 73
58 58 57 53 56 55 60 58 58 56 56 56 55 62 59 61 60 59 59 56 54 55 53 57 58 57 56 61 68 72 80 83 78 72 68 66 65 64 64 65 68 69 72
62 60 61 59 61 60 61 58 57 60 59 58 57 52 56 60 62 62 59 60 54 49 53 56 60 60 60 68 74 90 91 92 85 74 70 68 65 67 70 69 69 69 71
61 61 60 61 61 63 64 63 64 62 63 64 66 61 58 61 60 68 64 59 55 55 55 56 55 59 59 67 78 91 92 84 75 72 72 72 75 74 73 70 68 68 68
64 62 61 62 62 61 63 64 64 65 65 62 63 65 65 64 61 66 69 62 65 60 56 54 57 59 61 70 82 91 88 83 79 74 71 74 77 74 74 72 71 74 75
64 65 61 62 62 65 64 64 64 64 63 65 64 63 63 65 65 66 70 70 71 61 58 52 49 52 55 70 81 85 89 86 83 80 76 76 75 76 77 76 76 76 76
62 63 63 62 63 62 63 63 66 66 64 69 67 66 64 63 67 71 75 80 80 67 59 55 50 60 73 80 86 87 87 86 85 84 82 80 75 76 76 78 77 77 78
60 61 63 63 64 63 62 63 65 63 64 68 68 67 71 66 74 74 81 84 85 87 75 60 58 75 84 83 90 84 87 85 83 82 83 79 80 74 77 77 76 74 76
59 62 64 63 63 63 64 66 67 65 66 65 64 68 66 67 69 75 82 80 83 89 90 68 65 70 76 84 89 86 87 88 88 86 86 84 82 79 78 78 74 75 77
57 58 59 60 62 61 61 64 65 62 62 61 66 73 75 75 81 84 90 90 93 94 98 88 81 80 84 89 89 89 88 90 93 87 85 85 84 82 80 79 78 77 76
56 58 57 59 59 60 60 62 63 61 62 62 64 72 78 76 83 89 93 91 93 92 97 97 88 89 92 95 93 92 88 87 93 89 87 86 84 82 79 80 82 80 78
60 59 58 59 60 60 59 60 62 63 62 65 70 74 78 79 85 86 87 90 89 84 90 94 93 92 97 96 97 94 94 94 87 86 87 88 87 83 80 78 78 78 78
61 63 63 61 63 61 62 65 68 69 68 69 74 83 83 85 87 86 86 86 84 88 84 82 88 95 97 96 96 98 98 97 97 86 88 88 86 81 74 70 73 73 72
64 63 63 62 62 62 65 71 69 72 72 73 77 82 85 91 91 86 83 86 82 87 91 95 98 96 98 97 98 98 99 98 98 98 98 94 90 82 79 66 68 70 69
71 69 69 65 62 60 76 81 77 72 71 78 86 87 87 91 89 85 83 82 83 90 92 95 95 97 98 98 96 98 98 99 100 95 97 88 81 84 79 78 65 65 67
84 81 70 67 65 65 75 80 77 67 74 81 88 90 86 76 82 81 80 74 74 70 68 75 80 79 78 80 82 91 91 92 96 93 92 96 83 85 69 70 69 69 67
76 71 70 69 69 68 75 79 80 67 77 82 87 84 83 77 79 75 73 72 71 73 70 64 76 78 75 74 82 81 84 96 94 87 81 93 78 79 66 79 68 68 68
71 69 67 68 69 68 74 81 78 76 88 86 72 68 70 77 78 70 70 74 67 71 71 72 70 68 71 70 66 72 85 93 81 71 76 86 72 72 68 67 68 58 60
67 67 67 69 69 69 74 81 79 78 98 90 67 60 68 70 74 66 64 63 60 60 60 62 64 64 66 66 69 72 80 94 92 90 75 88 84 77 93 72 72 66 67
Wind_Speed
1 1 2 3 3 1 2 2 3 1 1 0 1 1 3 3 4 3 2 7 4 5 5 4 0 3 3 1 2 2 2 2 3 4 6 7 8 10 12 13 12 12 11
3 3 1 1 2 3 3 3 4 3 1 2 1 3 2 2 3 4 4 2 3 3 4 4 4 4 1 2 3 2 3 3 4 4 5 6 8 10 12 14 13 14 14
4 5 3 1 3 3 3 3 2 3 3 2 3 2 2 2 3 2 3 3 3 3 3 5 5 5 5 5 4 3 4 5 5 5 6 7 7 8 10 12 13 15 15
3 2 2 2 2 3 3 2 3 3 3 3 3 3 3 2 3 3 4 3 2 1 4 6 5 5 6 6 6 6 5 6 5 5 6 6 7 8 8 9 11 14 15
2 2 2 3 1 2 1 2 2 4 3 3 4 3 2 3 2 2 2 2 3 2 2 6 2 0 2 5 7 7 7 7 5 6 6 6 6 7 8 9 9 10 14
3 2 2 2 0 1 1 0 0 1 3 4 5 2 1 0 0 2 3 2 2 1 2 3 1 3 2 3 5 6 6 5 5 5 6 6 7 7 8 8 8 9 10
4 3 2 2 1 1 2 2 0 1 1 3 4 2 1 1 2 3 3 3 4 4 3 3 3 3 2 3 4 5 6 5 5 7 7 7 8 9 10 9 9 8 8
4 4 3 3 3 2 3 4 3 0 1 4 2 1 3 3 1 1 2 3 4 3 4 4 4 4 3 3 5 4 6 7 8 7 6 5 6 7 8 9 10 10 8
5 5 5 4 3 3 3 4 4 5 3 3 5 3 2 1 1 2 1 2 3 2 3 4 3 3 4 4 4 5 10 9 8 8 7 7 7 8 9 9 9 11 11
5 5 6 4 3 4 4 4 4 4 4 3 0 3 3 4 3 2 4 3 4 5 7 4 3 2 2 3 4 8 8 8 8 9 10 10 11 10 9 8 11 11 12
4 4 4 4 4 3 4 4 4 4 3 3 3 3 2 2 2 1 3 0 3 5 5 4 4 3 1 1 3 6 8 7 7 9 10 11 11 8 11 11 11 12 13
4 3 4 4 3 3 3 3 3 3 3 3 2 2 3 3 4 2 2 5 6 4 6 6 3 3 1 1 5 4 7 8 9 10 11 11 12 11 10 11 11 12 13
4 5 3 3 3 3 2 2 3 3 3 3 3 3 3 3 3 3 3 4 4 6 5 5 4 3 3 2 6 5 6 7 8 8 9 10 9 9 9 10 10 11 11
4 4 4 3 3 2 1 2 1 2 3 2 3 3 3 2 2 2 3 3 5 4 5 6 4 3 3 4 2 4 4 7 8 8 7 5 5 7 10 10 9 11 12
4 4 4 4 3 2 2 2 1 2 2 2 3 3 3 2 1 3 3 3 4 3 3 5 3 5 3 2 3 2 3 5 7 8 7 1 5 6 9 9 8 9 11
4 4 4 4 3 2 2 1 1 1 2 2 2 3 4 3 3 3 4 5 5 5 4 4 5 6 4 2 3 2 4 4 8 9 2 7 7 8 8 9 9 10 12
5 3 3 4 4 3 2 2 2 2 2 2 2 1 3 3 3 3 3 3 4 5 6 5 6 6 4 2 3 3 4 3 4 11 11 10 10 10 10 9 10 11 11
4 4 4 3 3 2 1 1 1 1 2 3 4 3 3 3 4 3 1 4 4 4 3 5 4 4 0 4 3 4 3 4 4 10 14 13 12 10 9 10 12 12 12
5 4 3 3 2 1 0 1 3 3 3 3 4 4 4 4 3 2 3 3 3 4 3 3 4 1 2 2 3 3 3 3 3 9 9 10 10 9 11 12 12 11 12
6 6 4 1 1 2 2 1 2 3 4 4 3 2 2 3 4 3 2 3 4 4 4 5 4 2 2 2 2 1 2 3 3 4 6 8 8 10 10 9 11 11 10
5 4 3 2 2 1 2 3 3 3 5 4 2 2 2 3 4 5 3 5 6 4 3 3 2 2 2 2 2 2 2 2 3 3 2 2 1 2 3 7 7 9 8
5 2 3 1 1 1 3 4 4 4 4 3 2 1 2 1 2 7 8 10 9 6 4 2 2 2 2 2 2 2 1 1 1 2 2 2 2 3 3 5 8 8 10
5 4 3 3 2 2 3 3 3 4 3 3 2 1 1 1 1 4 4 6 10 11 8 3 4 3 2 3 1 2 2 2 2 2 3 1 1 3 2 4 8 9 9
4 4 4 3 1 2 3 5 3 4 2 1 2 1 2 2 4 4 2 5 6 7 6 5 6 6 5 5 4 3 3 2 1 2 3 1 1 0 2 4 5 6 7
5 4 2 1 1 2 2 3 4 3 1 1 2 0 1 1 7 2 3 4 4 4 7 10 10 10 14 15 11 2 3 2 0 2 5 3 3 3 1 2 3 1 2
4 2 1 1 1 2 3 0 2 1 1 1 2 4 4 4 5 2 1 4 3 2 2 2 3 6 8 10 15 8 5 2 2 1 5 4 4 3 3 1 2 1 3
Wind_Direction
68 114 16 358 308 294 277 301 297 205 232 222 218 323 340 356 328 345 23 84 25 43 47 52 5 206 228 113 74 52 36 347 301 284 275 265 262 252 242 241 236 234 240
77 53 22 346 316 350 345 327 344 317 322 293 312 337 327 333 344 345 345 137 115 45 42 36 44 38 326 318 349 15 7 338 333 299 300 286 268 258 254 245 241 237 239
138 157 161 281 347 1 329 301 278 300 285 291 264 260 285 296 276 239 226 309 157 153 92 56 33 13 354 338 332 338 335 332 346 323 313 300 291 281 270 260 249 243 243
108 125 129 101 53 10 332 326 332 289 308 318 298 296 275 267 296 312 320 293 258 290 144 96 48 18 355 342 321 310 312 314 315 318 338 334 310 282 282 275 266 255 249
68 112 112 111 114 102 52 341 13 335 324 319 296 297 311 306 313 286 274 294 294 270 320 119 110 295 24 349 332 320 308 303 309 313 324 344 343 339 316 298 286 274 262
72 85 83 66 128 136 111 205 125 41 11 337 295 301 15 30 74 46 40 60 41 338 313 14 283 138 104 17 358 344 321 322 328 332 335 335 341 337 332 329 315 300 281
61 57 74 87 16 51 70 348 264 6 69 350 284 137 108 107 97 83 62 43 43 58 58 30 22 347 137 158 72 22 352 339 330 318 314 317 318 315 311 314 319 316 317
63 83 62 60 33 84 62 42 359 238 55 30 348 301 181 171 137 69 62 49 62 56 36 28 360 10 3 345 49 4 358 341 329 325 325 326 330 326 322 317 309 306 311
81 79 67 64 50 44 51 47 29 6 20 45 32 340 221 139 329 129 196 62 25 3 12 355 357 5 351 1 353 35 17 348 324 307 305 311 313 312 315 323 336 340 348
87 74 75 68 59 52 38 41 29 14 343 29 141 24 19 6 325 193 166 178 45 344 359 311 311 314 0 356 354 61 16 356 334 309 302 304 303 324 324 332 344 334 333
96 88 86 83 75 74 60 31 17 24 23 9 9 3 3 27 357 323 317 67 28 19 288 330 305 292 312 330 46 48 26 12 347 330 324 320 331 352 356 340 333 327 328
136 100 115 98 86 79 66 46 26 23 20 16 7 15 359 353 355 343 318 333 323 321 311 287 293 277 114 116 88 59 33 26 11 353 344 349 8 1 351 342 339 345 343
156 142 114 105 91 76 71 50 36 2 14 3 358 360 348 347 359 329 305 292 292 308 299 298 322 308 91 21 71 26 51 28 17 2 350 356 5 7 10 5 -0 360 359
145 159 131 122 111 89 71 75 72 346 331 338 329 335 334 338 317 302 283 305 304 291 306 293 302 53 58 60 46 355 79 37 16 355 348 344 22 32 16 12 14 18 15
148 162 137 131 119 133 66 31 59 308 309 313 298 304 311 296 270 240 232 232 258 296 300 280 321 74 83 37 31 23 42 24 360 338 318 245 97 53 27 10 22 25 26
148 152 138 142 149 142 121 103 96 252 283 278 285 281 286 293 268 235 229 235 236 259 274 295 310 332 343 97 62 39 61 22 11 335 44 95 78 70 57 31 41 44 41
153 152 152 163 143 148 135 174 188 238 266 293 281 289 293 301 308 326 318 302 267 254 259 282 279 307 298 163 115 66 41 37 11 53 75 82 80 73 64 47 39 42 40
142 149 158 155 145 128 160 211 232 264 309 303 309 307 295 300 288 277 307 288 291 310 322 299 311 296 311 45 59 79 49 47 33 45 55 55 57 58 57 54 48 41 27
135 142 151 151 143 106 70 43 354 320 301 310 311 308 314 318 307 343 303 305 300 289 275 263 285 340 57 15 86 60 46 46 41 40 45 41 39 55 60 51 43 37 34
162 143 125 177 168 79 42 21 343 319 316 306 312 330 344 335 349 342 315 348 322 311 311 297 295 336 22 7 55 49 80 39 29 34 37 44 48 45 47 53 47 43 44
169 124 143 180 53 334 41 7 343 346 303 302 317 7 28 16 357 40 12 16 346 321 344 348 7 20 12 7 19 340 73 97 41 5 19 24 50 69 19 48 40 40 34
127 143 194 187 205 197 29 6 12 320 304 318 334 53 52 10 62 72 62 57 40 4 22 28 19 47 21 354 347 358 55 55 33 13 303 79 37 50 38 16 40 49 50
160 179 190 213 214 123 19 356 37 318 322 356 355 359 280 143 152 106 85 87 61 50 51 94 99 44 56 12 337 67 68 80 40 352 314 136 337 107 54 28 28 51 46
164 181 193 201 207 106 14 343 5 333 336 9 7 329 282 225 174 144 168 80 67 47 29 55 60 50 37 358 36 31 87 131 211 85 352 297 12 91 127 116 48 46 48
174 177 160 178 241 207 56 334 337 7 19 40 339 282 204 286 128 138 124 113 113 103 76 78 78 70 57 48 37 20 25 340 30 78 21 334 16 332 210 142 138 56 3
156 148 153 193 63 241 135 55 273 96 92 124 200 134 80 80 118 117 188 150 131 124 124 106 72 54 51 43 44 40 10 23 7 55 24 347 357 13 324 134 172 79 343